This demonstration page uses our WeatherBlox Daily Observations layout. Learn more.

Left ArrowRight Arrow

Hourly Observations for August 10, 2021

Temp ( °F °C ) Dew Point ( °F °C ) Humidity (%) Winds ( mph kmh ) Pressure ( in mb ) Visibility ( mi km ) Precip ( " mm )
12:56 am 00:56 Clear 79 26.1 59 15 50 50 WSW 6 9 29.80 1009 10 16 0.00 0.00
1:56 am 01:56 Clear 72 22.2 62 16.7 71 71 E 12 19 29.83 1010 10 16 0.00 0.00
2:56 am 02:56 Clear 73 22.8 61 16.1 66 66 S 13 20 29.87 1012 10 16 0.00 0.00
3:56 am 03:56 Partly Cloudy with Light Rain 76 24.4 58 14.4 54 54 SW 21 33 29.81 1010 10 16 0.00 0.00
4:56 am 04:56 Mostly Clear 80 26.7 54 12.2 41 41 SE 15 24 29.75 1008 10 16 0.00 0.00
5:56 am 05:56 Clear 76 24.4 56 13.3 50 50 NNW 5 7 29.83 1010 10 16 0.00 0.00
6:56 am 06:56 Sunny 69 20.6 58 14.4 68 68 N 10 17 29.82 1010 10 16 0.00 0.00
7:56 am 07:56 Sunny 70 21.1 60 15.6 71 71 NNE 5 7 29.84 1011 10 16 0.00 0.00
8:56 am 08:56 Sunny 74 23.3 63 17.2 69 69 NNE 9 15 29.86 1011 10 16 0.00 0.00
9:56 am 09:56 Sunny 77 25 64 17.8 64 64 NE 9 15 29.88 1012 10 16 0.00 0.00
10:56 am 10:56 Sunny 80 26.7 65 18.3 60 60 ENE 12 19 29.88 1012 10 16 0.00 0.00
11:56 am 11:56 Sunny 82 27.8 67 19.4 60 60 ENE 7 11 29.87 1012 10 16 0.00 0.00
12:56 pm 12:56 Sunny 83 28.3 68 20 61 61 ENE 7 11 29.86 1011 10 16 0.00 0.00
1:56 pm 13:56 Sunny 84 28.9 69 20.6 61 61 E 7 11 29.86 1011 10 16 0.00 0.00
2:56 pm 14:56 Sunny 86 30 66 18.9 51 51 ESE 7 11 29.85 1011 10 16 0.00 0.00
3:56 pm 15:56 Sunny 87 30.6 67 19.4 51 51 ESE 3 6 29.84 1010 10 16 0.00 0.00
4:56 pm 16:56 Hazy 88 31.1 69 20.6 54 54 SSE 6 9 29.81 1010 5 8 0.00 0.00
5:56 pm 17:56 Sunny 86 30 70 21.1 59 59 ENE 7 11 29.80 1009 10 16 0.00 0.00
6:56 pm 18:56 Sunny with Light Rain 84 28.9 72 22.2 67 67 SSE 10 17 29.80 1009 10 16 0.00 0.00
7:56 pm 19:56 Sunny with Light Rain 81 27.2 73 22.8 77 77 S 9 15 29.80 1009 3 4 0.00 0.00
8:03 pm 20:03 Sunny with Light Rain 81 27 72 22 74 74 S 7 11 29.74 1007 4 6 0.00 0.00
8:56 pm 20:56 Clear 75 23.9 71 21.7 88 88 SSW 3 6 29.79 1009 10 16 0.00 0.00
9:56 pm 21:56 Clear 74 23.3 70 21.1 88 88 S 9 15 29.81 1009 10 16 0.00 0.00
10:56 pm 22:56 Clear 73 22.8 68 20 84 84 S 12 19 29.79 1009 10 16 0.00 0.00
11:56 pm 23:56 Clear 74 23.3 70 21.1 88 88 S 8 13 29.78 1008 10 16 0.00 0.00

Powered by AerisWeather